"Pseudo-MPEC" for 1281E01

Created 2021 Feb 24 14:07:02 UT using Find_Orb

Click here for an explanation of pseudo-MPECs

 
 Astrometry: 
     1281E01 KC2021 02 09`jOCT@xIFwY/bus2xO]-L8J5R9XjAstrometrycxredacted;Q-NW94
     1281E01 KC2021 02 09NanLen$x#@svRclickq5XR')AZvyRfPqJ$eLP@here*NxJNWMTF,W94
     1281E01 KC2021 02 09`Ni'.efor[:+wjWGIWgu]=phFnlexplanationB#)QJ57xXs`wTTW94

Station data:
(W94) AMACS1, San Pedro de Atacama  (S22.953076 W68.179810)  Chile.

Orbital elements:  1281E01
   Perihelion 2021 Mar 24.872738 +/- 127.72 TT = 20:56:44 (JD 2459298.372738)
Epoch 2021 Feb  9.0 TT = JDT 2459254.5   Earth MOID: 0.3112   AutoNEOCP
M 331.79535133 +/- 38.093549        (J2000 ecliptic)
n   0.64287414 +/- 0.327127         Peri.  276.85878 +/- 98.396414
a   1.32959307 +/- 0.451035         Node   255.38818 +/- 49.122715
e   0.0181608 +/- 0.285937          Incl.   18.84979 +/- 19.303145
P   1.53/559.97d           H 20.2   G  0.15   U 12.0  SR
q 1.30544650 +/- 0.692289    Q 1.35373964 +/- 36.4758
From 3 observations 2021 Feb. 9 (15.1 min); mean residual 0".19
Residuals in arcseconds: 
210209 W94  .19-  .01+    210209 W94  .38+  .03-    210209 W94  .19-  .02+    

Ephemerides (geocentric):
Date (UTC) HH   RA              Dec         delta   r     elong  mag " sig PA
---- -- -- --  -------------   -----------  ------ ------ -----  --- ---- ---
2021 02 24 14  08 09 06.137   -40 09 09.01  .48658 1.3067 120.7 20.8  32d  33
2021 02 24 15  08 09 03.254   -40 08 51.94  .48663 1.3067 120.7 20.8  32d  33
2021 02 24 16  08 09 00.379   -40 08 34.78  .48668 1.3067 120.6 20.8  32d  33
2021 02 24 17  08 08 57.511   -40 08 17.55  .48673 1.3067 120.6 20.8  32d  33
2021 02 24 18  08 08 54.650   -40 08 00.23  .48679 1.3067 120.6 20.8  32d  33
2021 02 24 19  08 08 51.797   -40 07 42.84  .48684 1.3067 120.6 20.8  32d  33
2021 02 24 20  08 08 48.951   -40 07 25.37  .48689 1.3067 120.6 20.8  32d  33
2021 02 24 21  08 08 46.112   -40 07 07.81  .48694 1.3067 120.6 20.8  32d  33
2021 02 24 22  08 08 43.281   -40 06 50.18  .48700 1.3067 120.6 20.8  32d  33
2021 02 24 23  08 08 40.457   -40 06 32.47  .48705 1.3067 120.6 20.8  32d  33
2021 02 25 00  08 08 37.640   -40 06 14.67  .48710 1.3067 120.6 20.8  32d  33
2021 02 25 01  08 08 34.830   -40 05 56.80  .48715 1.3067 120.6 20.8  32d  33
2021 02 25 02  08 08 32.028   -40 05 38.85  .48721 1.3067 120.5 20.8  32d  33
2021 02 25 03  08 08 29.234   -40 05 20.82  .48726 1.3066 120.5 20.8  32d  33
2021 02 25 04  08 08 26.446   -40 05 02.71  .48731 1.3066 120.5 20.8  32d  33
2021 02 25 05  08 08 23.666   -40 04 44.52  .48737 1.3066 120.5 20.8  32d  33
2021 02 25 06  08 08 20.894   -40 04 26.26  .48742 1.3066 120.5 20.8  32d  33
2021 02 25 07  08 08 18.129   -40 04 07.91  .48747 1.3066 120.5 20.8  32d  33
2021 02 25 08  08 08 15.371   -40 03 49.49  .48752 1.3066 120.5 20.8  32d  33
2021 02 25 09  08 08 12.620   -40 03 30.99  .48758 1.3066 120.5 20.9  32d  33
2021 02 25 10  08 08 09.877   -40 03 12.41  .48763 1.3066 120.5 20.9  32d  33
2021 02 25 11  08 08 07.141   -40 02 53.75  .48768 1.3066 120.5 20.9  32d  33
2021 02 25 12  08 08 04.413   -40 02 35.01  .48774 1.3066 120.5 20.9  32d  33
2021 02 25 13  08 08 01.692   -40 02 16.20  .48779 1.3066 120.4 20.9  32d  33
2021 02 25 14  08 07 58.979   -40 01 57.31  .48784 1.3066 120.4 20.9  32d  33
2021 02 25 15  08 07 56.273   -40 01 38.34  .48790 1.3066 120.4 20.9  32d  33
2021 02 25 16  08 07 53.574   -40 01 19.29  .48795 1.3066 120.4 20.9  32d  33
2021 02 25 17  08 07 50.883   -40 01 00.17  .48800 1.3066 120.4 20.9  32d  33
2021 02 25 18  08 07 48.199   -40 00 40.97  .48806 1.3066 120.4 20.9  32d  33
2021 02 25 19  08 07 45.522   -40 00 21.69  .48811 1.3066 120.4 20.9  32d  33
2021 02 25 20  08 07 42.854   -40 00 02.33  .48816 1.3066 120.4 20.9  33d  33
2021 02 25 21  08 07 40.192   -39 59 42.90  .48822 1.3066 120.4 20.9  33d  33
2021 02 25 22  08 07 37.538   -39 59 23.39  .48827 1.3066 120.4 20.9  33d  33
2021 02 25 23  08 07 34.891   -39 59 03.81  .48833 1.3066 120.3 20.9  33d  33
2021 02 26 00  08 07 32.252   -39 58 44.15  .48838 1.3066 120.3 20.9  33d  33
2021 02 26 01  08 07 29.620   -39 58 24.41  .48843 1.3066 120.3 20.9  33d  33
2021 02 26 02  08 07 26.996   -39 58 04.60  .48849 1.3066 120.3 20.9  33d  33
2021 02 26 03  08 07 24.379   -39 57 44.71  .48854 1.3066 120.3 20.9  33d  33
2021 02 26 04  08 07 21.770   -39 57 24.74  .48860 1.3066 120.3 20.9  33d  33
2021 02 26 05  08 07 19.168   -39 57 04.70  .48865 1.3066 120.3 20.9  33d  33
2021 02 26 06  08 07 16.574   -39 56 44.58  .48870 1.3066 120.3 20.9  33d  33
2021 02 26 07  08 07 13.987   -39 56 24.39  .48876 1.3066 120.3 20.9  33d  33
2021 02 26 08  08 07 11.407   -39 56 04.12  .48881 1.3065 120.3 20.9  33d  33
2021 02 26 09  08 07 08.835   -39 55 43.77  .48887 1.3065 120.3 20.9  33d  33
2021 02 26 10  08 07 06.271   -39 55 23.35  .48892 1.3065 120.2 20.9  33d  33
2021 02 26 11  08 07 03.714   -39 55 02.86  .48897 1.3065 120.2 20.9  33d  33
2021 02 26 12  08 07 01.165   -39 54 42.29  .48903 1.3065 120.2 20.9  33d  33
2021 02 26 13  08 06 58.623   -39 54 21.64  .48908 1.3065 120.2 20.9  33d  33